This is the latest recevied weather packets stored in our database for station/object WX8ASH-13. If no packets are shown the sender has not sent any weather packets the latest 10 day(s).
| Time | Temp. | Humidity | Pressure | Rain* | Wind** | Luminosity | Snow |
|---|---|---|---|---|---|---|---|
| 1777587941 | 11.67° C | 57% | 1015.3 hPa | 0 mm | - | - | - |
| 1777587641 | 11.67° C | 60% | 1015.3 hPa | 0 mm | - | - | - |
| 1777587341 | 11.67° C | 58% | 1015.3 hPa | 0 mm | - | - | - |
| 1777587043 | 11.67° C | 58% | 1015.2 hPa | 0 mm | - | - | - |
| 1777586742 | 11.67° C | 58% | 1015.2 hPa | 0 mm | - | - | - |
| 1777586442 | 11.67° C | 60% | 1015 hPa | 0 mm | - | - | - |
| 1777586141 | 11.11° C | 60% | 1015.2 hPa | 0 mm | - | - | - |
| 1777585842 | 11.11° C | 62% | 1015.2 hPa | 0 mm | - | - | - |
| 1777585542 | 11.11° C | 61% | 1015.2 hPa | 0 mm | - | - | - |
| 1777585243 | 11.11° C | 58% | 1015.2 hPa | 0 mm | - | - | - |
| 1777584946 | 11.11° C | 60% | 1015.1 hPa | 0 mm | - | - | - |
| 1777584646 | 11.11° C | 61% | 1015.1 hPa | 0 mm | - | - | - |
| 1777584345 | 10.56° C | 63% | 1015.1 hPa | 0 mm | - | - | - |
| 1777584045 | 10.56° C | 61% | 1015.1 hPa | 0 mm | - | - | - |
| 1777583745 | 10.56° C | 60% | 1015.1 hPa | 0 mm | - | - | - |
| 1777583444 | 10.56° C | 61% | 1015.1 hPa | 0 mm | - | - | - |
| 1777583144 | 10.56° C | 60% | 1015.2 hPa | 0 mm | - | - | - |
| 1777582844 | 10.56° C | 65% | 1015.2 hPa | 0 mm | - | - | - |
| 1777582544 | 10.56° C | 63% | 1015.3 hPa | 0 mm | - | - | - |
| 1777582241 | 10.56° C | 67% | 1015.3 hPa | 0 mm | - | - | - |
| 1777581941 | 10.56° C | 65% | 1015.3 hPa | 0 mm | - | - | - |
| 1777581644 | 10.56° C | 66% | 1015.2 hPa | 0 mm | - | - | - |
| 1777581340 | 10.56° C | 67% | 1015.3 hPa | 0 mm | - | - | - |
| 1777581038 | 11.11° C | 66% | 1015.2 hPa | 0 mm | - | - | - |
| 1777580738 | 11.11° C | 65% | 1015.2 hPa | 0 mm | - | - | - |
* Rain latest hour (hover to see other rain measurements)
** Current wind speed in m/s (hover to see current wind gust speed)